Location: Cambroso
(45.2833°N, 12.0850°E)
Time: 19:20:32
(UTC+00:00)

Meteor 1-21 Rocket - Pass Details

Date: 21 January 2021
Orbit: 834 x 906 km, 81.2° (Epoch: 04 March)

Event Time Altitude Azimuth Distance (km) Brightness Sun altitude
Rises 18:04:26 0° 195° (SSW) 3,371 7.6 -21.0°
Reaches altitude 10° 18:06:50 10° 198° (SSW) 2,439 6.9 -21.4°
Maximum altitude 18:12:20 71° 282° (WNW) 884 4.4 -22.4°
Drops below altitude 10° 18:17:54 10° 7° (N) 2,466 6.5 -23.4°
Sets 18:20:21 0° 9° (N) 3,412 7.2 -23.8°
